Regional Weather Roundup
Issued by NWS

Home | Current Version | Previous Version | Text Only | Print | Product List | Glossary On
Versions: 1 2 3 4 5 6 7 8 9 10 11 12 13 14 15 16 17 18 19 20 21 22 23 24 25 26 27 28 29 30 31 32 33 34 35 36 37 38 39 40 41 42 43 44 45 46 47 48 49 50
000
ASUS43 KLSX 301407
RWRMO

WEATHER SUMMARY FOR MISSOURI
NATIONAL WEATHER SERVICE SPRINGFIELD MO
900 AM CDT THU JUL 30 2015

NOTE: "FAIR" INDICATES FEW OR NO CLOUDS BELOW 12,000 FEET WITH NO
       SIGNIFICANT WEATHER AND/OR OBSTRUCTIONS TO VISIBILITY.
       CURRENT SKY AND/OR WEATHER CONDITIONS ARE NOT AVAILABLE FOR
       CHILLICOTHE AND FARMINGTON.

MOZ001>031-035>038-043-044-053-054-301500-
...NORTHERN AND WESTERN MISSOURI...

CITY           SKY/WX    TMP DP  RH WIND       PRES   REMARKS
KANSAS CTY INT PTSUNNY   76  66  71 CALM      30.22R
KANSAS C DTWN  SUNNY     76  68  76 CALM      30.21R
LEE`S SUMMIT   SUNNY     77  67  71 CALM      30.22R
ST JOSEPH      SUNNY     71  67  87 CALM      30.22R
CHILLICOTHE      N/A     76  66  71 W3        30.21R
KIRKSVILLE     SUNNY     75  61  61 NW8       30.20R

$$
MOZ066>068-077>081-088>096-101>105-301500-
...SOUTHWEST MISSOURI...

CITY           SKY/WX    TMP DP  RH WIND       PRES   REMARKS
SPRINGFIELD    MOSUNNY   75  61  61 E6        30.21R
JOPLIN         PTSUNNY   79  65  62 NE8       30.19R

$$
MOZ032>034-039>042-045>050-055>058-069>072-301500-
...CENTRAL MISSOURI...

CITY           SKY/WX    TMP DP  RH WIND       PRES   REMARKS
COLUMBIA       SUNNY     77  65  66 N5        30.20R
JEFFERSON CITY SUNNY     73  66  78 CALM      30.19R
ROLLA          SUNNY     76  63  64 NE5       30.19R
SEDALIA        SUNNY     79  65  62 CALM      30.22R
WHITEMAN AFB   MOSUNNY   74  65  72 CALM      30.21R
WARRENSBURG    SUNNY     72  64  78 CALM      30.21R
OSAGE BEACH    SUNNY     75  63  64 CALM      30.21R

$$
MOZ051-052-059>065-301500-
...EAST CENTRAL MISSOURI...

CITY           SKY/WX    TMP DP  RH WIND       PRES   REMARKS
ST LOUIS INTL  SUNNY     81  62  52 NW6       30.17R
SPIRIT OF STL  SUNNY     75  66  73 SW3       30.16R
ST CHARLES     SUNNY     80  61  52 CALM      30.15R

$$
MOZ072>076-082>087-097>100-106>115-301500-
...SOUTH CENTRAL AND SOUTHEAST MISSOURI...

CITY           SKY/WX    TMP DP  RH WIND       PRES   REMARKS
CAPE GIRARDEAU NOT AVBL
FARMINGTON     SUNNY     73  61  64 N6        30.22R
POPLAR BLUFF   SUNNY     77  63  61 NE9       30.14R
WEST PLAINS    SUNNY     76  62  62 NE8       30.22R

$$


USA.gov is the U.S. government's official web portal to all federal, state and local government web resources and services.